This is the latest recevied weather packets stored in our database for station/object JE6MIQ-13. If no packets are shown the sender has not sent any weather packets the latest 10 day(s).
| Time | Temp. | Humidity | Pressure | Rain* | Wind** | Luminosity | Snow |
|---|---|---|---|---|---|---|---|
| 1777924355 | 11.67° C | 53% | 1019.7 hPa | 0 mm | - | - | - |
| 1777923755 | 11.67° C | 54% | 1019.7 hPa | 0 mm | - | - | - |
| 1777923155 | 11.67° C | 55% | 1019.3 hPa | 0 mm | - | - | - |
| 1777922553 | 11.67° C | 56% | 1019.1 hPa | 0 mm | - | - | - |
| 1777921954 | 11.67° C | 56% | 1019.1 hPa | 0 mm | - | - | - |
| 1777921354 | 11.67° C | 56% | 1019.2 hPa | 0 mm | - | - | - |
| 1777920755 | 11.67° C | 56% | 1019 hPa | 0 mm | - | - | - |
| 1777920154 | 11.67° C | 56% | 1019 hPa | 0 mm | - | - | - |
| 1777919554 | 11.67° C | 56% | 1018.7 hPa | 0 mm | - | - | - |
| 1777918955 | 11.67° C | 55% | 1018.8 hPa | 0 mm | - | - | - |
| 1777918354 | 11.67° C | 53% | 1018.6 hPa | 0 mm | - | - | - |
| 1777917755 | 11.67° C | 54% | 1018.6 hPa | 0 mm | - | - | - |
| 1777917154 | 11.67° C | 56% | 1018.4 hPa | 0 mm | - | - | - |
| 1777916555 | 12.22° C | 56% | 1018.4 hPa | 0 mm | - | - | - |
| 1777915954 | 11.67° C | 53% | 1018.4 hPa | 0 mm | - | - | - |
| 1777915355 | 12.22° C | 55% | 1018.1 hPa | 0 mm | - | - | - |
| 1777914754 | 11.67° C | 52% | 1017.9 hPa | 0 mm | - | - | - |
| 1777914155 | 11.67° C | 49% | 1017.9 hPa | 0 mm | - | - | - |
| 1777913554 | 11.67° C | 49% | 1017.8 hPa | 0 mm | - | - | - |
| 1777912955 | 11.67° C | 48% | 1017.8 hPa | 0 mm | - | - | - |
| 1777912353 | 11.67° C | 46% | 1017.5 hPa | 0 mm | - | - | - |
| 1777911754 | 11.67° C | 45% | 1016.8 hPa | 0 mm | - | - | - |
| 1777911154 | 11.67° C | 46% | 1016.6 hPa | 0 mm | - | - | - |
| 1777910555 | 12.22° C | 45% | 1016.6 hPa | 0 mm | - | - | - |
| 1777909954 | 12.22° C | 45% | 1016.6 hPa | 0 mm | - | - | - |
* Rain latest hour (hover to see other rain measurements)
** Current wind speed in m/s (hover to see current wind gust speed)